Tracking 31027 objects as of 19-Jul-2025
HD Live streaming from Space Station
objects crossing your sky now

PSLV DEB

Track PSLV DEB now!
10-day predictions


NORAD ID: 27142
Int'l Code: 2001-049CN
Perigee: 654.0 km
Apogee: 1,057.0 km
Inclination: 97.4 °
Period: 101.9 minutes
Semi major axis: 7226 km
RCS: 0.0118 m2 (small)
Launch date: October 22, 2001
Source: India (IND)
Launch site: SRIHARIKOTA (SRI)

Note: This is SATELLITE DEBRIS
Your satellite tracking list
FENGYUN 1C DEB
Track 1 satellite(s)




NASA's NSSDC Master Catalog

Two Line Element Set (TLE):
1 27142U 01049CN  25199.19621780  .00000682  00000-0  26336-3 0  9999
2 27142  97.3988 293.5958 0278870  98.4281 264.8607 14.13227421211809
Source of the keplerian elements: AFSPC